Location: Baltimore
(39.2903°N, 76.6125°W)
Time: 06:03:36
(UTC-04:00)

ISS - Pass Details

Date: 27 December 2012
Orbit: 402 x 404 km, 51.6° (Epoch: 30 May)

Event Time Altitude Azimuth Distance (km) Brightness Sun altitude
Rises 18:04:41 0° 308° (NW) 2,383 1.1 -13.9°
Reaches altitude 10° 18:06:48 10° 310° (NW) 1,507 0.0 -14.3°
Maximum altitude 18:10:11 81° 37° (NE) 425 -3.4 -14.9°
Enters shadow 18:12:18 21° 124° (SE) 1,000 -1.7 -15.3°
